Meath Environmental Platform

Observations for Trim Market St

Time AQI Temp °C Hum % Pres Pa CO μg/m³ H₂S μg/m³ NO μg/m³ NO₂ μg/m³ O₃ μg/m³ SO₂ μg/m³ PM1 μg/m³ PM2.5 μg/m³ PM10 μg/m³
Thursday 30 April 2026
13:18 1 24.7 37 65,633 0.07 0 0 3.43 31.56 0 2.14 6.23 8.35
13:14 1 24.5 37 65,635 0.08 0 0 3.59 38.97 0 2.85 6.76 11.65
13:06 1 24.1 38 65,637 0.19 0 0 4.18 36.75 0 2.85 6.71 8.34
13:05 1 24 38 65,625 0.08 0 0 8.92 45.24 0 3.56 8.31 9.99
13:03 1 23.8 38 65,598 0.06 0 0 3.16 37.38 0 2.85 7.24 9.16
13:00 1 23.5 38 65,598 0.12 0 0 4.69 34.8 0 3.56 7.75 10.79
12:59 1 23.4 38 65,576 0.07 0 0 6.41 39.78 0 2.85 7.21 8.34
12:58 1 23.4 38 65,574 0.04 0 0 6.41 43.75 0 2.14 6.68 9.16
12:56 1 23.3 38 65,584 0.11 0 0 1.69 27.34 0 2.85 6.13 7.53
12:55 1 23.4 39 65,562 0.13 0 0 4.65 34.26 0 1.43 4.53 5.09
12:54 1 23.4 39 65,562 0.16 0 0.3 3.41 27.15 0 4.28 7.7 10.77
12:53 1 23.3 39 65,538 0.11 0 0 6.43 38.1 0 2.85 6.1 7.53
12:52 1 23.3 39 65,558 0.1 0 0 7.72 42.03 0 2.85 6.62 7.53
12:51 1 23.2 39 65,556 0.13 0 0 7.73 45.73 0 2.85 6.62 11.57
12:49 1 23 40 65,578 0.06 0 0 6.14 39.72 0 2.14 6.07 8.33
12:45 1 22.2 40 65,507 0 0 0 6.3 45.96 0 2.85 6.57 9.94
12:44 1 22.1 40 65,469 0 0 0 5.12 42.18 0 2.14 4.99 7.53
12:36 1 21.9 40 65,471 0 0 0.44 5.65 46.05 0 2.14 6.07 8.33
12:35 1 21.9 40 65,485 0 0 0 6.46 50.89 0 2.14 6.61 8.33
12:30 1 22.3 39 65,523 0.24 0 1.24 10.74 32.32 0 2.14 5.59 5.9